Zurück zum Katalog

CZ-6A DEB

AktivSSO
NORAD 57579·DEBRIS·🇨🇳 China

Gestartet Nov 11, 2022 von Taiyuan Satellite Launch Center

Loading…

Nächste Überflüge (nächste 24 Stunden)

TLE

AlterndSource: Space-Track

Epoche: Sep 6, 2026, 07:33 UTC

1 57579U 22151AHW 26249.31481111  .00000907  00000-0  40371-3 0  9991
2 57579  98.7531 266.1230 0025310  94.9416 265.4654 14.25204418175020

Verfolge CZ-6A DEB in Echtzeit mit AllMySat

Download on the App Store